Stations météo

réclame
Mon MeteoGroup
Santiago de Compostela/Labacolla, Espagne (8042): Température de l'air & dewpoint: 13.10.2018 11:00:00 - 19.10.2018 11:00:00 (CEST)Santiago de Compostela/Labacolla, Espagne (8042): Vitesse du vent: 13.10.2018 11:00:00 - 19.10.2018 11:00:00 (CEST)Santiago de Compostela/Labacolla, Espagne (8042): Direction du vent: 13.10.2018 11:00:00 - 19.10.2018 11:00:00 (CEST)Santiago de Compostela/Labacolla, Espagne (8042): reduced air pressure: 13.10.2018 11:00:00 - 19.10.2018 11:00:00 (CEST)Santiago de Compostela/Labacolla, Espagne (8042): visibility: 13.10.2018 11:00:00 - 19.10.2018 11:00:00 (CEST)
Date & Time tt [°C] td [°C] ff [km/h] ff [knt] dd ppp [hPa] vv [km]
19.10.2018 11:00:00 - - - - - - -
19.10.2018 10:00:00 13,7 12,6 11 6 N 1018,7 5
19.10.2018 09:00:00 12,9 12,3 11 6 N 1018,2 4,4
19.10.2018 08:00:00 12,8 11,9 21 11 N 1017,9 6
19.10.2018 07:00:00 12,7 12,1 8 4 N 1017,2 7
19.10.2018 06:00:00 13,3 12,5 4 2 ENE 1017,5 7
19.10.2018 05:00:00 14,1 12,8 8 4 N 1018,0 11
19.10.2018 04:00:00 14,3 13,0 16 9 N 1018,4 9
19.10.2018 03:00:00 13,9 12,9 13 7 N 1018,6 7
19.10.2018 02:00:00 14,0 12,8 13 7 N 1018,3 12
19.10.2018 01:00:00 14,3 12,9 15 8 N 1018,4 10
19.10.2018 00:00:00 14,1 13,0 15 8 N 1018,3 10
18.10.2018 23:00:00 14,1 12,8 11 6 NNE 1018,0 12
18.10.2018 22:00:00 14,1 13,0 15 8 NNE 1017,5 11
18.10.2018 21:00:00 14,0 12,9 9 5 NNE 1017,0 10
18.10.2018 20:00:00 14,3 13,0 16 9 N 1016,7 15
18.10.2018 19:00:00 15,4 13,3 11 6 N 1016,0 18
18.10.2018 18:00:00 16,0 13,5 15 8 N 1015,8 19
18.10.2018 17:00:00 16,7 13,3 16 9 N 1015,8 30
18.10.2018 16:00:00 17,1 12,3 8 4 NNE 1015,8 30
18.10.2018 15:00:00 16,6 13,2 9 5 NNE 1016,1 22
18.10.2018 14:00:00 16,0 12,9 13 7 N 1016,8 30
18.10.2018 13:00:00 15,0 12,6 11 6 N 1017,0 30
18.10.2018 12:00:00 14,3 12,0 9 5 N 1017,2 30
18.10.2018 11:00:00 13,8 12,4 13 7 N 1016,9 25
18.10.2018 10:00:00 13,3 11,9 8 4 NNE 1016,5 30
18.10.2018 09:00:00 13,2 12,3 9 5 N 1015,5 21
18.10.2018 08:00:00 12,8 12,2 11 6 NNE 1015,0 12
18.10.2018 07:00:00 12,5 11,9 13 7 N 1014,7 7
18.10.2018 06:00:00 12,4 11,8 11 6 N 1014,3 7
18.10.2018 05:00:00 12,4 11,9 8 4 NNE 1014,4 7
18.10.2018 04:00:00 12,1 11,6 13 7 N 1014,4 8
18.10.2018 03:00:00 12,1 11,5 16 9 N 1014,3 8
18.10.2018 02:00:00 12,0 11,7 13 7 N 1015,0 7
18.10.2018 01:00:00 12,1 11,8 11 6 N 1015,4 8
18.10.2018 00:00:00 12,2 11,9 9 5 N 1015,4 4,9
17.10.2018 23:00:00 12,3 12,0 8 4 N 1015,4 8
17.10.2018 22:00:00 12,1 11,8 9 5 N 1015,3 4,4
17.10.2018 21:00:00 11,9 11,6 5 3 N 1015,2 9
17.10.2018 20:00:00 12,2 11,8 8 4 N 1015,0 15
17.10.2018 19:00:00 12,5 12,0 15 8 N 1014,7 3,5
17.10.2018 18:00:00 13,1 12,8 4 2 N 1014,7 9
17.10.2018 17:00:00 12,3 11,7 4 2 WNW 1015,7 4,0
17.10.2018 16:00:00 12,6 11,3 8 4 NW 1015,7 7
17.10.2018 15:00:00 13,0 11,8 4 2 W 1016,2 6
17.10.2018 14:00:00 13,3 11,9 11 6 W 1016,8 15
17.10.2018 13:00:00 13,5 12,1 13 7 WSW 1017,1 12
17.10.2018 12:00:00 12,8 11,6 5 3 S 1017,3 9
17.10.2018 11:00:00 11,0 10,8 8 4 S 1017,9 15
17.10.2018 10:00:00 8,9 8,8 2 1 WNW 1018,6 3,5
17.10.2018 09:00:00 8,7 8,6 8 4 S 1018,5 3,0
17.10.2018 08:00:00 9,0 8,9 4 2 S 1019,0 8
17.10.2018 07:00:00 8,8 8,7 0 0 N 1019,1 4,0
17.10.2018 06:00:00 8,0 7,9 4 2 S 1019,1 -
17.10.2018 05:00:00 8,3 8,2 8 4 WNW 1019,3 0,1
17.10.2018 04:00:00 8,4 8,3 0 0 N 1019,5 -
17.10.2018 03:00:00 9,3 9,2 5 3 WNW 1019,9 -
17.10.2018 02:00:00 9,8 9,7 8 4 NW 1020,2 0,2
17.10.2018 01:00:00 9,5 9,2 8 4 WNW 1020,4 -
17.10.2018 00:00:00 11,2 10,7 0 0 N 1020,4 -
16.10.2018 23:00:00 11,6 10,8 8 4 NNW 1020,2 12
16.10.2018 22:00:00 12,2 10,6 11 6 N 1019,8 17
16.10.2018 21:00:00 13,5 11,7 9 5 N 1019,4 22
16.10.2018 20:00:00 15,1 12,1 9 5 N 1018,6 30
16.10.2018 19:00:00 17,7 11,6 9 5 N 1017,7 30
16.10.2018 18:00:00 19,3 11,7 9 5 N 1017,2 30
16.10.2018 17:00:00 20,0 9,6 5 3 SW 1017,1 30
16.10.2018 16:00:00 19,6 9,9 4 2 NNW 1017,0 30
16.10.2018 15:00:00 19,0 10,2 5 3 NNE 1017,2 28
16.10.2018 14:00:00 18,3 10,6 4 2 N 1017,5 30
16.10.2018 13:00:00 16,5 10,3 4 2 ENE 1017,7 30
16.10.2018 12:00:00 14,8 10,5 2 1 E 1017,6 30
16.10.2018 11:00:00 13,6 10,7 0 0 N 1017,3 30
16.10.2018 10:00:00 10,2 9,3 0 0 N 1017,1 30
16.10.2018 09:00:00 9,0 8,2 4 2 NNW 1016,5 3,5
16.10.2018 08:00:00 7,4 7,0 4 2 NW 1016,3 0,6
16.10.2018 07:00:00 9,5 8,9 0 0 N 1015,3 22
16.10.2018 06:00:00 9,7 9,1 0 0 N 1014,7 30
16.10.2018 05:00:00 8,4 7,5 4 2 N 1014,5 0,7
16.10.2018 04:00:00 10,4 9,6 0 0 N 1013,9 24
16.10.2018 03:00:00 10,5 9,7 0 0 N 1013,9 30
16.10.2018 02:00:00 11,3 10,5 0 0 N 1013,5 25
16.10.2018 01:00:00 11,6 10,8 0 0 N 1013,3 30
16.10.2018 00:00:00 12,2 11,4 0 0 N 1012,7 30
15.10.2018 23:00:00 12,5 11,6 0 0 N 1011,8 30
15.10.2018 22:00:00 12,7 11,8 4 2 ESE 1010,7 30
15.10.2018 21:00:00 14,5 12,4 5 3 S 1010,1 30
15.10.2018 20:00:00 15,2 12,9 5 3 SSE 1009,2 30
15.10.2018 19:00:00 15,9 13,2 5 3 SE 1008,1 30
15.10.2018 18:00:00 16,2 13,7 5 3 SSE 1007,3 30
15.10.2018 17:00:00 16,1 12,9 9 5 SE 1006,6 28
15.10.2018 16:00:00 16,3 13,1 11 6 SE 1005,7 30
15.10.2018 15:00:00 15,3 13,1 9 5 ESE 1005,4 25
15.10.2018 14:00:00 14,7 12,9 11 6 SE 1005,3 12
15.10.2018 13:00:00 12,8 12,4 9 5 SE 1004,9 30
15.10.2018 12:00:00 11,5 11,3 9 5 SE 1004,5 3,2
15.10.2018 11:00:00 10,8 10,6 11 6 SE 1003,6 4,0
15.10.2018 10:00:00 10,9 10,7 11 6 SSE 1003,1 2,0
15.10.2018 09:00:00 11,1 10,9 5 3 SE 1002,8 1,1
15.10.2018 08:00:00 11,1 10,8 5 3 SSE 1002,5 3,0
15.10.2018 07:00:00 11,3 11,0 16 9 S 1002,5 -
15.10.2018 06:00:00 10,1 9,8 4 2 E 1002,8 3,3
15.10.2018 05:00:00 10,1 9,6 11 6 SE 1003,7 6
15.10.2018 04:00:00 10,3 9,4 16 9 S 1005,4 12
15.10.2018 03:00:00 10,6 8,7 15 8 SSE 1006,8 4,1
15.10.2018 02:00:00 10,9 8,1 24 13 S 1008,3 10
15.10.2018 01:00:00 10,9 7,9 18 10 S 1009,4 30
15.10.2018 00:00:00 11,0 8,6 15 8 S 1010,9 28
14.10.2018 23:00:00 10,6 8,5 11 6 S 1011,7 20
14.10.2018 22:00:00 10,8 8,6 9 5 SSW 1012,5 26
14.10.2018 21:00:00 11,3 7,6 11 6 SW 1012,6 30
14.10.2018 20:00:00 12,5 9,3 9 5 WSW 1012,7 25
14.10.2018 19:00:00 13,1 8,7 8 4 W 1012,6 30
14.10.2018 18:00:00 14,1 9,2 8 4 N 1012,6 28
14.10.2018 17:00:00 14,6 8,1 13 7 NNW 1012,8 25
14.10.2018 16:00:00 13,9 7,9 15 8 NNW 1013,6 28
14.10.2018 15:00:00 14,4 8,3 18 10 NNW 1013,6 20
14.10.2018 14:00:00 14,1 9,3 26 14 N 1013,7 14
14.10.2018 13:00:00 14,0 10,3 29 16 NNW 1013,8 27
14.10.2018 12:00:00 12,5 10,5 26 14 NNW 1013,6 21
14.10.2018 11:00:00 11,2 9,9 15 8 NW 1013,2 4,0
14.10.2018 10:00:00 10,6 9,7 9 5 WNW 1012,2 11
14.10.2018 09:00:00 10,0 9,7 13 7 NW 1011,3 14
14.10.2018 08:00:00 9,3 9,0 5 3 N 1010,2 2,0
14.10.2018 07:00:00 8,9 8,6 8 4 SSW 1009,4 6
14.10.2018 06:00:00 8,7 8,1 5 3 SW 1009,4 24
14.10.2018 05:00:00 8,8 7,8 5 3 NW 1009,1 7
14.10.2018 04:00:00 9,1 7,7 15 8 NW 1008,6 20
14.10.2018 03:00:00 10,0 8,9 22 12 NNW 1008,3 18
14.10.2018 02:00:00 10,1 9,6 13 7 N 1007,8 7
14.10.2018 01:00:00 10,0 9,7 13 7 N 1007,7 9
14.10.2018 00:00:00 10,1 9,6 8 4 N 1008,9 8
13.10.2018 23:00:00 10,7 10,2 9 5 N 1009,1 8
13.10.2018 22:00:00 11,0 10,4 26 14 N 1009,3 9
13.10.2018 21:00:00 12,0 11,2 24 13 N 1009,4 9
13.10.2018 20:00:00 17,2 13,6 11 6 NW 1008,6 30
13.10.2018 19:00:00 17,5 13,4 15 8 SSW 1008,8 30
13.10.2018 18:00:00 18,3 14,8 16 9 WSW 1009,6 24
13.10.2018 17:00:00 19,6 15,1 13 7 WSW 1009,3 40
13.10.2018 16:00:00 21,8 14,7 21 11 SW 1008,9 30
13.10.2018 15:00:00 22,6 14,4 22 12 SSW 1009,3 40
13.10.2018 14:00:00 22,1 12,9 26 14 SSW 1010,4 40
13.10.2018 13:00:00 21,7 11,0 28 15 SSW 1011,3 30
13.10.2018 12:00:00 20,2 10,9 21 11 SSW 1012,4 30
13.10.2018 11:00:00 19,1 10,3 21 11 SSW 1013,2 50

tt = Température de l'air
td = dewpoint
ff = Vitesse du vent
dd = Direction du vent
ppp = reduced air pressure
vv = visibility

stations d'obs. à proximité